www.pogodaiklimat.ru

Погода и климат >> Архив погоды >> Гана >> Bole


ПОГОДА в Bole

  • Прогноз погоды в Bole
  • Монитор погоды в Bole
  • Климат города

АРХИВ ПОГОДЫ в Bole

Время (UTC), дата Ветер
(напр.,м/с)
 
Видим.   Явления Облачность Т
(С)
Тd
(С)
f
(%)
Тe
(С)
Тes
(С)
Комфортность P
(гПа)
Po
(гПа)
Тmin
(С)
Tmax
(С)
R
(мм)
R24
(мм)
S
(см)
21 12.08 ЮЗ 1 15 км {гроза} 8/8 360 м
[Sc]
+23.0 +22.0 94 +31 +31 очень
душно
1015.1 1015.0
00 13.08 штиль 0 15 км {гроза} 8/4 360 м
[Sc Ac trans]
+23.2 +21.9 92 +31 +31 очень
душно
1016.1 1016.0
03 13.08 ЮЗ 1 15 км 5/3 360 м
[Sc As op]
+22.8 +21.8 94 +31 +31 очень
душно
1013.3 1013.0
12 13.08 ЮЗ 2 18 км 8/8 480 м
[Cu med, cong]
+29.5 +22.0 64 +38 +43 очень
душно
1013.6 1014.0
15 13.08 ЮЗ 1 18 км 8/8 500 м
[Cu med, cong]
+31.5 +22.6 59 +41 +44 опасность
перегрева
1011.5 1012.0
18 13.08 ЮЗ 1 18 км 5/1 500 м
[Cu med, cong Ac trans Ci sp]
+30.5 +22.3 62 +40 +40 очень
душно
1011.1 1011.0 +31.5
21 13.08 Ю 1 15 км 5/0
[Ci sp]
+27.0 +22.7 77 +36 +36 очень
душно
1012.6 1013.0
03 14.08 штиль 0 15 км 4/0
[Ci sp]
+24.7 +22.9 90 +33 +33 очень
душно
1012.9 1013.0
06 14.08 ЮЗ 1 15 км 8/8 360 м
[Sc]
+23.5 +22.0 91 +30 +30 очень
душно
1013.3 1013.0 +23.5
09 14.08 З 2 15 км 9/9 360 м
[Sc]
+25.3 +23.0 87 +34 +35 очень
душно
1014.5 1015.0
12 14.08 З 1 18 км 9/9 360 м
[Cu Sc]
+28.8 +23.8 74 +39 +42 очень
душно
1014.1 1014.0
15 14.08 ЮЗ 1 15 км в посл. час гроза 9/6 360 м
[Sc Ac trans]
+22.3 +20.6 90 +29 +32 очень
душно
1013.9 1014.0
18 14.08 ЮЗ 1 15 км {гроза, дождь} 9/4 360 м
[Sc Ac trans Cs]
+23.1 +21.2 89 +31 +31 очень
душно
1011.7 1012.0 +28.8 5
03 15.08 ЮЗ 1 12 км 8/0
[Ac trans]
+22.0 +21.0 94 +28 +28 душно 1012.7 1013.0
06 15.08 ЮВ 1 12 км 9/9 330 м
[Sc]
+22.2 +21.1 93 +29 +29 очень
душно
1014.4 1014.0 +22.0 5
12 15.08 ЮЗ 1 16 км {дождь} 9/6 360 м
[Cu Sc Ac trans]
+25.5 +22.3 82 +33 +39 очень
душно
1015.2 1015.0 0.0
15 15.08 ЮВ 1 18 км 6/5 480 м
[Cu med, cong Ac trans]
+28.6 +22.4 69 +37 +44 очень
душно
1012.3 1012.0
18 15.08 ЮЗ 1 18 км 5/3 450 м
[Cu med, cong Ac trans Ci fib]
+27.8 +22.3 72 +36 +36 очень
душно
1012.8 1013.0 +28.6 0.0
00 16.08 ЮЗ 1 15 км 1/0
[Ci fib]
+23.5 +21.9 91 +30 +30 очень
душно
1015.8 1016.0
03 16.08 штиль 0 15 км ясно +22.8 +21.4 92 +30 +30 очень
душно
1013.2 1013.0
09 16.08 ЮЗ 2 15 км 9/9 360 м
[Sc]
+23.5 +21.3 87 +30 +31 очень
душно
1011.7 1012.0
12 16.08 ЮЗ 2 7000 м 9/9 400 м
[Cu Sc]
+26.0 +21.6 77 +33 +36 очень
душно
1015.0 1015.0
15 16.08 ЮЗ 2 12 км 8/8 500 м
[Cu med, cong]
+29.5 +23.5 70 +40 +42 очень
душно
1016.6 1017.0
18 16.08 СЗ 1 18 км 8/4 480 м
[Cu med, cong Ac trans]
+27.5 +22.9 76 +37 +37 очень
душно
1013.0 1013.0 +29.5
09 17.08 ЮЗ 1 15 км 8/5 360 м
[Cu Sc Cs]
+25.0 +21.8 82 +32 +37 очень
душно
1014.6 1015.0
15 18.08 ЮЗ 1 16 км 9/6 360 м
[Cu Sc Ac trans]
+26.0 +21.3 75 +33 +36 очень
душно
1010.3 1010.0
18 18.08 СЗ 1 16 км 8/3 360 м
[Cu Sc Ac trans]
+25.5 +22.3 82 +33 +33 очень
душно
1010.7 1011.0 +26.0
21 18.08 штиль 0 15 км 6/5 360 м
[Sc Ac trans]
+24.6 +22.0 85 +32 +32 очень
душно
1012.5 1013.0
00 19.08 ЮЗ 1 15 км 9/9 360 м
[Sc]
+23.7 +22.1 91 +31 +31 очень
душно
1012.7 1013.0
03 19.08 штиль 0 15 км 9/9 360 м
[Sc]
+23.0 +21.6 92 +31 +31 очень
душно
1011.2 1011.0
06 19.08 ЮЗ 2 15 км 9/9 360 м
[Sc]
+23.3 +21.9 92 +32 +32 очень
душно
1012.9 1013.0 +23.3
09 19.08 ЮЗ 1 15 км 9/6 360 м
[Cu Sc Ac trans]
+25.0 +21.8 82 +32 +35 очень
душно
1015.0 1015.0
12 19.08 ЮЗ 2 15 км 9/9 400 м
[Cu Sc]
+27.5 +22.2 73 +36 +38 очень
душно
1013.3 1013.0

 

Местоположение метеостанции Bole (Гана): широта 9.03 долгота -2.48 высота над уровнем моря 301 м.

В архиве по умолчанию представлена погода в Bole за последнюю неделю. Архивные данные за месяц целиком и за предыдущие месяцы, начиная с января 2011 года, Вы можете получить, выбрав интересующий диапазон дат из раскрывающегося списка и нажав кнопку "Ввод!".

Внимание! Время в таблицах - всемирное. Для получения местного времени необходимо прибавить поправку, которая в Bole равна 1 ч.

Смотрите также архив погоды в соседних городах и на ближайших метеорологических станциях:

Погода в Wa (Гана) (113 км)
Погода в Bondoukou (Кот-д'Ивуар) (114 км)
Погода в Wenchi (Гана) (148 км)
Погода в Gaoua (Буркина-Фасо) (164 км)
Погода в Tamale (Гана) (186 км)
Погода в Sunyani (Гана) (190 км)
Погода в Navrongo (Гана) (257 км)
Погода в Yendi (Гана) (274 км)
Погода в Kumasi (Гана) (275 км)
Погода в Po (Буркина-Фасо) (277 км)

Пояснения к столбцам:

Ветер - указаны скорость ветра в м/с - средняя за 10 мин, порывы в срок и между сроками (в фигурных скобках) и направление, откуда дует ветер: С - северный, СВ - северо-восточный, В - восточный, ЮВ - юго-восточный, Ю - южный, ЮЗ - юго-западный, З - западный, СЗ - северо-западный.
Видимость - горизонтальная дальность видимости в метрах или километрах. При видимости от 1 до 10 км при отсутствии осадков обычно наблюдается дымка, при ухудшении видимости до 1 км и менее - туман. В сухую погоду видимость может ухудшаться дымом, пылью или мглою.
Явления - указаны атмосферные явления, наблюдавшиеся в срок или в последний час перед сроком; фигурными скобками обозначены явления, наблюдавшиеся между сроками (за 1-3 часа до срока); квадратными скобками обозначены град или гололедные отложения с указанием их диаметра в мм.
Облачность - указаны через наклонную черту общая и нижняя облачность в баллах и высота нижней границы облаков в метрах; квадратными скобками обозначены формы облаков: Ci - перистые, Cs - перисто-слоистые, Cc - перисто-кучевые, Ac - высококучевые, As - высокослоистые, Sc - слоисто-кучевые, Ns - слоисто-дождевые, Cu - кучевые, Cb - кучево-дождевые. Подробнее классификацию облаков см. в Атласе облаков (PDF).
T - Температура воздуха - температура, измеренная на высоте 2 м над землей.
Td - Температура точки росы - температура, при понижении до которой содержащийся в воздухе водяной пар достигнет насыщения.
f - Относительная влажность воздуха - влажноcть воздуха, измеренная на высоте 2 м над землей.
Te - Эффективная температура - температура, которую ощущает одетый по сезону человек в тени. Характеристика душности погоды. При расчете учитывается влияние влажности воздуха и скорости ветра на теплоощущения человека.
Tes - Эффективная температура на солнце - температура, которую ощущает человек, с поправкой на солнечный нагрев. Характеристика знойности погоды. Зависит от высоты солнца над горизонтом, облачности и скорости ветра. Ночью, в пасмурную погоду, а также при ветре 12 м/с и более поправка равна нулю.
P - Атмосферное давление - приведенное к уровню моря атмосферное давление.
Po - Атмосферное давление - измеренное на уровне метеостанции атмосферное давление.
Tmin - Минимальная температура - минимум температуры воздуха на высоте 2 м над землей.
Tmax - Максимальная температура - максимум температуры воздуха на высоте 2 м над землей.
R - Количество осадков - Количество выпавших осадков за период времени, мм. При наведении курсора мыши на число - период времени, за который выпало указанное количество осадков.
R24 - Количество осадков - Количество выпавших осадков за 24 часа, мм.
S - Снежный покров - Высота снежного покрова, см. При наведении курсора мыши на число - состояние снежного покрова и степень покрытия местности в баллах.